Waarnemingen

Advertentie
Mijn weer
Charlwood, Groot Brittannië (3769): temperatuur & dauwpunt: 06.12.2017 23:00:00 - 12.12.2017 23:00:00 (GMT)Charlwood, Groot Brittannië (3769): temperatuur -20cm & temperatuur -100cm: 06.12.2017 23:00:00 - 12.12.2017 23:00:00 (GMT)Charlwood, Groot Brittannië (3769): windsnelheid & windstoten: 06.12.2017 23:00:00 - 12.12.2017 23:00:00 (GMT)Charlwood, Groot Brittannië (3769): windrichting: 06.12.2017 23:00:00 - 12.12.2017 23:00:00 (GMT)Charlwood, Groot Brittannië (3769): luchtdruk: 06.12.2017 23:00:00 - 12.12.2017 23:00:00 (GMT)Charlwood, Groot Brittannië (3769): zicht: 06.12.2017 23:00:00 - 12.12.2017 23:00:00 (GMT)Charlwood, Groot Brittannië (3769): Zonneschijnduur: 06.12.2017 23:00:00 - 12.12.2017 23:00:00 (GMT)Charlwood, Groot Brittannië (3769): neerslag: 06.12.2017 23:00:00 - 12.12.2017 23:00:00 (GMT)
Datum & Tijd tt [°C] td [°C] tt -20cm [°C] tt -100cm [°C] ff [km/u] ff [kn] fx [km/u] fx [kn] dd ppp [hPa] vv [km] sd [min] rr [mm]
12.12.2017 23:00:00 6,2 5,5 - - 11 6 - - ZZW 1006,6 13 0 0,6
12.12.2017 22:00:00 5,0 4,1 - - 9 5 - - Z 1007,6 13 0 0,2
12.12.2017 21:00:00 3,5 2,8 - - 9 5 - - ZZW 1008,8 35 0 0,0
12.12.2017 20:00:00 -0,3 -0,6 - - 5 3 - - ZZW 1009,5 20 0 0,0
12.12.2017 19:00:00 -1,0 -1,5 - - 0 0 - - N 1010,1 10 0 0,0
12.12.2017 18:00:00 -1,1 -1,7 - - 0 0 - - N 1010,4 10 0 0,0
12.12.2017 17:00:00 -0,8 -1,6 - - 0 0 - - N 1010,5 11 0 0,0
12.12.2017 16:00:00 0,9 -1,0 - - 4 2 - - Z 1010,8 9 0 0,0
12.12.2017 15:00:00 2,9 -0,3 - - 5 3 - - ZZW 1010,4 25 6 0,0
12.12.2017 14:00:00 3,2 0,0 - - 8 4 - - ZZW 1010,0 28 18 0,0
12.12.2017 13:00:00 3,6 0,0 - - 5 3 - - ZW 1010,1 24 60 0,0
12.12.2017 12:00:00 2,8 -0,7 - - 5 3 - - WZW 1009,9 20 60 0,0
12.12.2017 11:00:00 1,5 -1,4 - - 4 2 - - ZW 1010,1 25 54 0,0
12.12.2017 10:00:00 -0,7 -1,3 - - 4 2 - - ZO 1009,4 11 60 0,0
12.12.2017 09:00:00 -2,4 -2,7 6,2 8,7 5 3 - - ZW 1009,2 9 0 0,0
12.12.2017 08:00:00 -4,5 -5,0 - - 5 3 - - WZW 1008,1 5 0 0,0
12.12.2017 07:00:00 -4,4 -5,1 - - 5 3 - - ZW 1006,9 7 0 0,0
12.12.2017 06:00:00 -3,7 -4,6 - - 2 1 - - ZW 1005,9 7 0 0,0
12.12.2017 05:00:00 -2,3 -3,3 - - 8 4 - - WNW 1005,1 17 0 0,0
12.12.2017 04:00:00 -2,5 -3,9 - - 4 2 - - WNW 1004,2 14 0 0,0
12.12.2017 03:00:00 -1,8 -3,2 - - 8 4 - - W 1003,1 18 0 0,0
12.12.2017 02:00:00 -1,8 -3,6 - - 4 2 - - W 1001,8 18 0 0,0
12.12.2017 01:00:00 -1,8 -3,1 - - 5 3 - - WNW 1000,3 16 0 0,0
12.12.2017 00:00:00 -1,1 -3,8 - - 5 3 - - W 999,2 40 - 0,0
11.12.2017 23:00:00 -0,2 -3,7 - - 11 6 - - WNW 997,8 50 0 0,0
11.12.2017 22:00:00 0,1 -3,4 - - 11 6 - - NW 996,9 50 0 0,0
11.12.2017 21:00:00 0,2 -2,4 - - 11 6 - - NW 995,5 40 0 0,0
11.12.2017 20:00:00 0,4 -1,6 - - 11 6 - - NW 993,7 35 0 0,0
11.12.2017 19:00:00 0,8 -1,1 - - 11 6 - - NW 992,0 35 0 0,0
11.12.2017 18:00:00 1,4 -0,9 - - 15 8 - - NW 990,2 45 0 0,0
11.12.2017 17:00:00 2,0 -0,4 - - 13 7 - - NNW 988,4 45 0 0,0
11.12.2017 16:00:00 2,6 0,5 - - 13 7 - - N 986,3 50 0 0,2
11.12.2017 15:00:00 2,2 1,4 - - 15 8 - - N 984,6 16 0 0,4
11.12.2017 14:00:00 1,4 0,6 - - 15 8 - - N 983,1 6 0 0,6
11.12.2017 13:00:00 2,0 1,2 - - 16 9 - - N 981,6 9 0 0,4
11.12.2017 12:00:00 1,8 1,1 - - 21 11 - - NNO 980,5 12 0 0,8
11.12.2017 11:00:00 1,5 0,9 - - 21 11 - - NNO 979,8 8 0 1,2
11.12.2017 10:00:00 1,5 0,8 - - 24 13 - - NNO 978,7 8 0 1,0
11.12.2017 09:00:00 1,6 1,0 6,5 9,0 24 13 - - NNO 978,1 7 0 1,4
11.12.2017 08:00:00 1,6 1,1 - - 22 12 - - NNO 977,5 6 0 1,4
11.12.2017 07:00:00 1,9 1,2 - - 21 11 - - NNO 977,2 7 0 1,2
11.12.2017 06:00:00 2,3 1,6 - - 21 11 - - NO 977,2 7 0 0,0
11.12.2017 05:00:00 2,0 1,2 - - 15 8 - - NO 977,5 14 0 0,0
11.12.2017 04:00:00 1,7 1,0 - - 18 10 - - NO 978,0 8 0 0,0
11.12.2017 03:00:00 1,3 0,8 - - 11 6 - - NO 979,8 6 0 0,0
11.12.2017 02:00:00 1,2 0,6 - - 13 7 - - ONO 980,6 6 0 0,0
11.12.2017 01:00:00 1,0 0,5 - - 11 6 - - ONO 980,3 6 0 0,0
11.12.2017 00:00:00 0,9 0,4 - - 9 5 - - ONO 981,2 6 - 0,0
10.12.2017 23:00:00 0,8 0,3 - - 11 6 - - O 980,9 8 0 0,0
10.12.2017 22:00:00 0,8 0,3 - - 9 5 - - ONO 980,8 7 0 0,0
10.12.2017 21:00:00 0,7 0,3 - - 8 4 - - ONO 980,7 7 0 0,0
10.12.2017 20:00:00 0,4 0,0 - - 2 1 - - N 980,3 8 0 0,0
10.12.2017 19:00:00 0,3 -0,5 - - 2 1 - - W 979,8 9 0 0,0
10.12.2017 18:00:00 1,2 0,1 - - 4 2 - - N 979,4 24 0 0,0
10.12.2017 17:00:00 1,4 0,2 - - 8 4 - - WNW 978,8 50 0 0,0
10.12.2017 16:00:00 1,3 0,2 - - 9 5 - - WNW 977,8 50 0 0,0
10.12.2017 15:00:00 2,0 0,6 - - 9 5 - - WNW 976,9 22 0 0,0
10.12.2017 14:00:00 2,8 0,7 - - 18 10 57 31 WNW 975,1 50 0 0,2
10.12.2017 13:00:00 4,3 2,4 - - 28 15 72 39 W 972,9 13 0 1,2
10.12.2017 12:00:00 6,7 5,1 - - 31 17 61 33 WZW 971,3 5 0 1,0
10.12.2017 11:00:00 6,1 5,1 - - 16 9 46 25 W 972,5 11 0 1,0
10.12.2017 10:00:00 3,8 3,5 - - 5 3 - - W 973,0 4,9 0 0,2
10.12.2017 09:00:00 2,9 2,5 6,7 9,2 8 4 - - NNO 973,1 18 0 1,2
10.12.2017 08:00:00 2,6 2,0 - - 18 10 - - O 975,4 5 0 3,0
10.12.2017 07:00:00 3,3 2,7 - - 18 10 - - ZO 980,2 3,8 0 3,0
10.12.2017 06:00:00 3,7 3,3 - - 15 8 - - ZO 984,3 4,9 0 3,6
10.12.2017 05:00:00 2,8 2,8 - - 11 6 - - O 988,3 2,4 0 1,8
10.12.2017 04:00:00 0,5 0,2 - - 13 7 - - ONO 991,6 2,4 0 0,8
10.12.2017 03:00:00 0,3 -0,3 - - 9 5 - - ONO 995,3 5 0 0,2
10.12.2017 02:00:00 -0,4 -1,1 - - 4 2 - - NNO 998,6 8 0 0,0
10.12.2017 01:00:00 -1,1 -1,6 - - 2 1 - - OZO 1001,2 11 0 0,0
10.12.2017 00:00:00 -1,8 -2,7 - - 2 1 - - WZW 1003,8 10 - 0,0
09.12.2017 23:00:00 -1,1 -1,7 - - 2 1 - - ZW 1005,7 12 0 0,0
09.12.2017 22:00:00 -1,7 -2,6 - - 2 1 - - NO 1007,0 12 0 0,0
09.12.2017 21:00:00 -1,3 -2,9 - - 2 1 - - ZO 1008,7 12 0 0,0
09.12.2017 20:00:00 0,7 -1,8 - - 4 2 - - ZW 1009,8 18 0 0,0
09.12.2017 19:00:00 1,2 -1,2 - - 5 3 - - WZW 1011,0 18 0 0,0
09.12.2017 18:00:00 0,9 -1,4 - - 8 4 - - ZW 1011,8 18 0 0,0
09.12.2017 17:00:00 1,3 -1,3 - - 9 5 - - WZW 1012,6 18 0 0,0
09.12.2017 16:00:00 1,7 -1,3 - - 8 4 - - ZW 1013,0 19 0 0,0
09.12.2017 15:00:00 2,4 -1,4 - - 5 3 - - ZZW 1013,9 40 0 0,0
09.12.2017 14:00:00 3,3 -1,4 - - 5 3 - - WZW 1014,7 45 6 0,0
09.12.2017 13:00:00 3,8 -1,8 - - 11 6 - - WZW 1015,9 45 48 0,0
09.12.2017 12:00:00 2,9 -1,3 - - 8 4 - - W 1016,8 23 54 0,0
09.12.2017 11:00:00 2,1 -1,8 - - 11 6 - - WZW 1017,9 24 54 0,0
09.12.2017 10:00:00 0,5 -2,1 - - 11 6 - - WZW 1018,5 40 54 0,0
09.12.2017 09:00:00 -0,5 -2,5 7,2 9,2 13 7 - - WZW 1018,8 35 0 0,0
09.12.2017 08:00:00 -1,4 -3,3 - - 11 6 - - W 1018,8 40 0 0,0
09.12.2017 07:00:00 -0,7 -3,1 - - 9 5 - - W 1018,9 45 0 0,0
09.12.2017 06:00:00 -0,2 -2,8 - - 9 5 - - W 1018,7 50 0 0,0
09.12.2017 05:00:00 -0,8 -2,8 - - 11 6 - - W 1018,9 50 0 0,0
09.12.2017 04:00:00 -1,1 -3,2 - - 9 5 - - W 1019,1 40 0 0,0
09.12.2017 03:00:00 -0,1 -2,7 - - 11 6 - - WNW 1019,2 50 0 0,0
09.12.2017 02:00:00 0,1 -2,8 - - 9 5 - - WNW 1019,1 45 0 0,0
09.12.2017 01:00:00 0,2 -2,8 - - 13 7 - - W 1019,2 50 0 0,0
09.12.2017 00:00:00 0,4 -2,7 - - 11 6 - - WNW 1019,3 40 - 0,0
08.12.2017 23:00:00 0,3 -2,6 - - 9 5 - - WNW 1019,2 45 0 0,0
08.12.2017 22:00:00 0,5 -2,8 - - 9 5 - - WNW 1019,1 50 0 0,0
08.12.2017 21:00:00 0,8 -2,7 - - 9 5 - - NW 1018,6 45 0 0,0
08.12.2017 20:00:00 0,9 -2,5 - - 9 5 - - WNW 1018,6 45 0 0,0
08.12.2017 19:00:00 -0,5 -3,1 - - 5 3 - - WZW 1018,7 50 0 0,0
08.12.2017 18:00:00 1,1 -2,9 - - 5 3 - - WNW 1018,1 50 0 0,0
08.12.2017 17:00:00 1,8 -2,6 - - 11 6 - - WNW 1017,9 50 0 0,0
08.12.2017 16:00:00 2,3 -3,0 - - 11 6 - - NW 1017,4 50 0 0,0
08.12.2017 15:00:00 3,9 -2,3 - - 13 7 - - WNW 1016,9 50 54 0,0
08.12.2017 14:00:00 4,0 -2,0 - - 13 7 - - NW 1016,7 50 36 0,0
08.12.2017 13:00:00 4,2 -1,5 - - 15 8 - - WNW 1016,5 40 54 0,0
08.12.2017 12:00:00 4,2 -1,5 - - 15 8 - - WNW 1016,4 45 48 0,0
08.12.2017 11:00:00 3,1 -1,0 - - 15 8 - - WNW 1016,6 50 24 0,0
08.12.2017 10:00:00 2,7 -0,8 - - 15 8 - - WNW 1016,4 40 12 0,0
08.12.2017 09:00:00 2,3 -1,0 8,0 9,2 11 6 - - WNW 1015,4 50 6 0,0
08.12.2017 08:00:00 2,0 -1,3 - - 11 6 - - W 1014,3 35 0 0,0
08.12.2017 07:00:00 2,3 -1,5 - - 13 7 - - W 1013,8 26 0 0,0
08.12.2017 06:00:00 2,0 -1,8 - - 13 7 - - WZW 1013,0 30 0 0,0
08.12.2017 05:00:00 2,3 -1,6 - - 16 9 - - W 1012,6 35 0 0,0
08.12.2017 04:00:00 2,7 -1,3 - - 15 8 - - W 1012,8 26 0 0,0
08.12.2017 03:00:00 3,1 -0,9 - - 16 9 - - W 1013,0 24 0 0,0
08.12.2017 02:00:00 2,8 -0,4 - - 13 7 - - WZW 1013,3 21 0 0,0
08.12.2017 01:00:00 3,0 0,3 - - 13 7 - - WZW 1013,1 24 0 0,0
08.12.2017 00:00:00 3,4 -0,2 - - 11 6 - - W 1013,5 30 - 0,0
07.12.2017 23:00:00 4,2 0,3 - - 11 6 - - W 1013,2 30 0 0,0
07.12.2017 22:00:00 4,6 0,8 - - 13 7 - - W 1013,0 20 0 0,0
07.12.2017 21:00:00 4,7 1,1 - - 11 6 - - W 1012,9 19 0 0,0
07.12.2017 20:00:00 5,3 1,3 - - 11 6 - - W 1012,5 23 0 0,0
07.12.2017 19:00:00 6,0 1,9 - - 9 5 - - W 1012,1 16 0 0,0
07.12.2017 18:00:00 6,9 2,1 - - 11 6 - - W 1011,5 16 0 0,0
07.12.2017 17:00:00 6,8 2,9 - - 13 7 - - WNW 1010,6 17 0 0,0
07.12.2017 16:00:00 7,1 3,8 - - 11 6 - - WNW 1009,5 21 0 0,0
07.12.2017 15:00:00 7,6 3,9 - - 8 4 - - NW 1007,7 20 12 0,0
07.12.2017 14:00:00 8,2 6,3 - - 9 5 - - NW 1007,7 16 0 1,4
07.12.2017 13:00:00 11,7 11,4 - - 15 8 - - ZW 1005,6 1,9 0 0,4
07.12.2017 12:00:00 11,4 11,0 - - 21 11 48 26 ZW 1006,1 3,6 0 1,6
07.12.2017 11:00:00 10,7 10,2 - - 24 13 50 27 ZZW 1006,8 4,1 0 0,6
07.12.2017 10:00:00 10,3 9,7 - - 26 14 55 30 ZZW 1007,8 2,9 0 0,2
07.12.2017 09:00:00 10,3 9,8 8,0 9,2 26 14 46 25 ZZW 1008,5 3,5 0 0,2
07.12.2017 08:00:00 9,7 9,1 - - 26 14 46 25 ZZW 1009,3 5 0 0,2
07.12.2017 07:00:00 9,4 8,7 - - 26 14 52 28 ZZW 1010,4 3,1 0 0,4
07.12.2017 06:00:00 9,3 8,6 - - 29 16 48 26 ZZW 1011,2 3,6 0 0,4
07.12.2017 05:00:00 8,8 8,1 - - 21 11 50 27 ZZW 1012,7 3,5 0 0,4
07.12.2017 04:00:00 8,7 8,0 - - 26 14 48 26 ZZW 1013,8 9 0 0,2
07.12.2017 03:00:00 8,3 7,7 - - 24 13 - - ZZW 1015,3 3,3 0 0,0
07.12.2017 02:00:00 8,0 7,1 - - 21 11 - - ZZW 1016,5 5 0 0,0
07.12.2017 01:00:00 8,4 6,4 - - 28 15 48 26 ZZW 1017,7 11 0 0,0
07.12.2017 00:00:00 9,0 6,3 - - 26 14 50 27 ZZW 1018,7 21 - 0,0
06.12.2017 23:00:00 8,8 6,0 - - 24 13 - - ZZW 1019,9 17 0 0,0

tt = temperatuur
td = dauwpunt
tt -20cm = temperatuur -20cm
tt -100cm = temperatuur -100cm
ff = windsnelheid
fx = windstoten
dd = windrichting
ppp = luchtdruk
vv = zicht
sd = Zonneschijnduur
rr = neerslag

Weerstations in de omgeving